EIN35L EIDW-EGLL

Flight info

Callsign EIN35L
Flight time 1h 14m
Altitude 35000
Route PESIT2J PESIT DCT BAKUR DCT ECCIT DCT GUBJE DCT GISOK DCT TACQI DCT FONZU DCT ELRIP DCT OTMET
Aircraft A21N/M-SDE2E3FGHIRWXY/LB1

Departure

Time 2026-05-07 22:27
Airport Dublin Airport (EIDW)

Arrival

Time 2026-05-07 23:41
Airport London Heathrow Airport (EGLL)
Time Latitude Longitude Altitude Speed Heading
2026-05-07 21:56 53.42359 -6.24535 220 ft 0 kts 135°
2026-05-07 22:10 53.42367 -6.24548 224 ft 3 kts 135°
2026-05-07 22:10 53.42381 -6.24570 219 ft 3 kts 135°
2026-05-07 22:10 53.42394 -6.24592 220 ft 3 kts 135°
2026-05-07 22:11 53.42407 -6.24614 216 ft 2 kts 142°
2026-05-07 22:11 53.42423 -6.24620 215 ft 2 kts 214°
2026-05-07 22:11 53.42432 -6.24598 214 ft 2 kts 251°
2026-05-07 22:11 53.42438 -6.24571 219 ft 2 kts 251°
2026-05-07 22:12 53.42439 -6.24565 221 ft 0 kts 251°
2026-05-07 22:17 53.42406 -6.24679 219 ft 12 kts 237°
2026-05-07 22:17 53.42363 -6.24772 214 ft 9 kts 242°
2026-05-07 22:18 53.42383 -6.24874 214 ft 11 kts 328°
2026-05-07 22:18 53.42555 -6.25003 224 ft 21 kts 336°
2026-05-07 22:18 53.42656 -6.25077 221 ft 10 kts 338°
2026-05-07 22:19 53.42691 -6.25105 215 ft 0 kts 327°
2026-05-07 22:19 53.42703 -6.25119 217 ft 13 kts 327°
2026-05-07 22:20 53.42730 -6.25181 214 ft 9 kts 304°
2026-05-07 22:20 53.42837 -6.25273 215 ft 22 kts 336°
2026-05-07 22:20 53.42976 -6.25374 219 ft 22 kts 336°
2026-05-07 22:20 53.43110 -6.25473 219 ft 21 kts 337°
2026-05-07 22:21 53.43244 -6.25571 214 ft 21 kts 335°
2026-05-07 22:21 53.43376 -6.25658 216 ft 19 kts
2026-05-07 22:21 53.43404 -6.25497 214 ft 15 kts 95°
2026-05-07 22:21 53.43395 -6.25326 214 ft 14 kts 96°
2026-05-07 22:22 53.43385 -6.25164 221 ft 14 kts 96°
2026-05-07 22:22 53.43376 -6.25010 217 ft 13 kts 96°
2026-05-07 22:22 53.43371 -6.24923 217 ft 7 kts 96°
2026-05-07 22:22 53.43366 -6.24849 214 ft 6 kts 96°
2026-05-07 22:23 53.43364 -6.24805 218 ft 6 kts 95°
2026-05-07 22:23 53.43357 -6.24642 218 ft 16 kts 94°
2026-05-07 22:23 53.43348 -6.24460 214 ft 15 kts 96°
2026-05-07 22:23 53.43336 -6.24284 214 ft 15 kts 96°
2026-05-07 22:24 53.43330 -6.24171 223 ft 15 kts 95°
2026-05-07 22:24 53.43321 -6.24004 214 ft 14 kts 95°
2026-05-07 22:24 53.43347 -6.23865 217 ft 12 kts 28°
2026-05-07 22:24 53.43429 -6.23845 212 ft 12 kts
2026-05-07 22:25 53.43488 -6.23920 211 ft 11 kts 278°
2026-05-07 22:25 53.43489 -6.23945 219 ft 0 kts 275°
2026-05-07 22:26 53.43490 -6.23948 219 ft 4 kts 275°
2026-05-07 22:26 53.43512 -6.24395 215 ft 74 kts 275°
2026-05-07 22:26 53.43579 -6.25679 218 ft 149 kts 274°
2026-05-07 22:26 53.43716 -6.27600 626 ft 171 kts 276°
2026-05-07 22:27 53.43980 -6.29470 1507 ft 161 kts 291°
2026-05-07 22:27 53.44592 -6.31157 2005 ft 180 kts 302°
2026-05-07 22:27 53.45414 -6.32932 2365 ft 204 kts 306°
2026-05-07 22:27 53.46340 -6.34876 2976 ft 219 kts 305°
2026-05-07 22:28 53.47275 -6.36974 3627 ft 234 kts 304°
2026-05-07 22:28 53.48269 -6.39274 4204 ft 249 kts 304°
2026-05-07 22:28 53.49296 -6.41675 4938 ft 258 kts 304°
2026-05-07 22:28 53.50332 -6.44179 5717 ft 263 kts 299°
2026-05-07 22:29 53.51022 -6.47038 6519 ft 267 kts 277°
2026-05-07 22:29 53.50914 -6.50122 7339 ft 266 kts 251°
2026-05-07 22:29 53.49985 -6.52786 8204 ft 266 kts 225°
2026-05-07 22:29 53.48466 -6.54458 8758 ft 268 kts 199°
2026-05-07 22:30 53.46602 -6.54752 9407 ft 275 kts 172°
2026-05-07 22:30 53.44741 -6.53890 10261 ft 281 kts 163°
2026-05-07 22:30 53.42837 -6.52717 10692 ft 303 kts 161°
2026-05-07 22:30 53.40787 -6.51413 11004 ft 326 kts 161°
2026-05-07 22:31 53.38620 -6.50049 11334 ft 347 kts 162°
2026-05-07 22:31 53.36316 -6.48615 11919 ft 358 kts 162°
2026-05-07 22:31 53.33950 -6.47155 12695 ft 364 kts 162°
2026-05-07 22:31 53.31557 -6.45651 13498 ft 370 kts 161°
2026-05-07 22:32 53.29181 -6.43906 14233 ft 375 kts 158°
2026-05-07 22:32 53.26804 -6.42061 14971 ft 379 kts 158°
2026-05-07 22:32 53.24393 -6.40182 15700 ft 383 kts 158°
2026-05-07 22:32 53.21970 -6.38296 16454 ft 385 kts 158°
2026-05-07 22:33 53.19529 -6.36403 17187 ft 389 kts 158°
2026-05-07 22:33 53.17067 -6.34499 17884 ft 392 kts 158°
2026-05-07 22:33 53.14607 -6.32602 18527 ft 396 kts 158°
2026-05-07 22:33 53.12094 -6.30666 19114 ft 399 kts 158°
2026-05-07 22:34 53.09560 -6.28715 19715 ft 403 kts 158°
2026-05-07 22:34 53.06998 -6.26747 20291 ft 406 kts 158°
2026-05-07 22:34 53.04421 -6.24769 20881 ft 410 kts 158°
2026-05-07 22:34 53.01826 -6.22781 21453 ft 413 kts 158°
2026-05-07 22:35 52.99202 -6.20773 21991 ft 417 kts 158°
2026-05-07 22:35 52.96556 -6.18752 22549 ft 420 kts 158°
2026-05-07 22:35 52.93889 -6.16709 23092 ft 424 kts 158°
2026-05-07 22:35 52.91205 -6.14644 23593 ft 427 kts 158°
2026-05-07 22:36 52.88488 -6.12555 24036 ft 430 kts 158°
2026-05-07 22:36 52.85763 -6.10463 24465 ft 433 kts 158°
2026-05-07 22:36 52.83024 -6.08362 24888 ft 435 kts 158°
2026-05-07 22:36 52.80263 -6.06245 25326 ft 438 kts 158°
2026-05-07 22:37 52.77492 -6.04124 25741 ft 440 kts 158°
2026-05-07 22:37 52.74707 -6.01997 26166 ft 442 kts 158°
2026-05-07 22:37 52.71941 -5.99889 26560 ft 445 kts 158°
2026-05-07 22:37 52.69130 -5.97748 26957 ft 447 kts 158°
2026-05-07 22:38 52.66259 -5.95568 27335 ft 449 kts 158°
2026-05-07 22:38 52.63422 -5.93413 27835 ft 448 kts 158°
2026-05-07 22:38 52.60635 -5.91298 28399 ft 446 kts 158°
2026-05-07 22:38 52.57787 -5.89141 28910 ft 445 kts 158°
2026-05-07 22:39 52.55014 -5.87045 29404 ft 443 kts 158°
2026-05-07 22:39 52.52212 -5.84929 29913 ft 442 kts 158°
2026-05-07 22:39 52.49420 -5.82825 30352 ft 441 kts 158°
2026-05-07 22:39 52.46637 -5.80727 30699 ft 441 kts 158°
2026-05-07 22:40 52.43845 -5.78629 31024 ft 442 kts 158°
2026-05-07 22:40 52.41045 -5.76550 31355 ft 441 kts 160°
2026-05-07 22:40 52.38178 -5.74774 31683 ft 439 kts 163°
2026-05-07 22:40 52.35295 -5.73241 32013 ft 439 kts 165°
2026-05-07 22:41 52.32372 -5.71817 32358 ft 438 kts 166°
2026-05-07 22:41 52.29398 -5.70424 32674 ft 438 kts 167°
2026-05-07 22:41 52.26505 -5.69078 32973 ft 439 kts 166°
2026-05-07 22:41 52.23543 -5.67893 33293 ft 437 kts 171°
2026-05-07 22:42 52.20562 -5.66895 33599 ft 437 kts 171°
2026-05-07 22:42 52.17576 -5.65936 33882 ft 437 kts 171°
2026-05-07 22:42 52.14635 -5.64671 34113 ft 439 kts 163°
2026-05-07 22:42 52.11804 -5.62746 34337 ft 443 kts 155°
2026-05-07 22:43 52.09172 -5.60240 34537 ft 445 kts 150°
2026-05-07 22:43 52.06575 -5.57489 34756 ft 445 kts 148°
2026-05-07 22:43 52.03951 -5.54805 34944 ft 444 kts 154°
2026-05-07 22:44 51.98461 -5.50101 35028 ft 446 kts 156°
2026-05-07 22:44 51.92906 -5.45640 35031 ft 444 kts 156°
2026-05-07 22:45 51.87368 -5.41301 35031 ft 444 kts 157°
2026-05-07 22:45 51.81787 -5.36945 35030 ft 445 kts 156°
2026-05-07 22:46 51.76208 -5.32589 35033 ft 445 kts 156°
2026-05-07 22:46 51.70664 -5.28268 35030 ft 445 kts 156°
2026-05-07 22:47 51.65091 -5.23933 35030 ft 445 kts 156°
2026-05-07 22:47 51.59506 -5.19601 35032 ft 446 kts 156°
2026-05-07 22:48 51.53925 -5.15281 35031 ft 446 kts 156°
2026-05-07 22:48 51.48652 -5.10011 35032 ft 449 kts 144°
2026-05-07 22:49 51.43856 -5.03543 35029 ft 450 kts 141°
2026-05-07 22:49 51.39163 -4.96867 35032 ft 450 kts 140°
2026-05-07 22:50 51.34486 -4.90204 35031 ft 450 kts 141°
2026-05-07 22:50 51.29822 -4.83627 35029 ft 450 kts 141°
2026-05-07 22:51 51.25114 -4.77030 35028 ft 450 kts 141°
2026-05-07 22:51 51.20391 -4.70440 35029 ft 452 kts 141°
2026-05-07 22:52 51.15633 -4.63820 35030 ft 454 kts 141°
2026-05-07 22:52 51.10872 -4.57208 35031 ft 454 kts 141°
2026-05-07 22:53 51.06162 -4.50608 35031 ft 455 kts 138°
2026-05-07 22:53 51.02237 -4.42671 35024 ft 459 kts 125°
2026-05-07 22:54 50.98880 -4.34038 35030 ft 460 kts 123°
2026-05-07 22:54 50.95625 -4.25278 35033 ft 461 kts 122°
2026-05-07 22:55 50.92365 -4.16535 35029 ft 458 kts 123°
2026-05-07 22:55 50.89112 -4.07915 35037 ft 457 kts 123°
2026-05-07 22:56 50.85831 -3.99291 35035 ft 457 kts 123°
2026-05-07 22:56 50.82654 -3.90555 35039 ft 459 kts 116°
2026-05-07 22:57 50.80379 -3.81085 35033 ft 461 kts 111°
2026-05-07 22:57 50.78343 -3.71450 35042 ft 462 kts 110°
2026-05-07 22:58 50.76345 -3.61799 35047 ft 462 kts 110°
2026-05-07 22:58 50.74343 -3.52239 35047 ft 462 kts 110°
2026-05-07 22:59 50.72304 -3.42618 35047 ft 462 kts 111°
2026-05-07 22:59 50.70252 -3.33004 35048 ft 462 kts 111°
2026-05-07 23:00 50.68189 -3.23396 35044 ft 461 kts 111°
2026-05-07 23:00 50.66137 -3.13879 35045 ft 461 kts 111°
2026-05-07 23:01 50.64113 -3.04300 34922 ft 461 kts 107°
2026-05-07 23:01 50.63532 -2.99321 34511 ft 464 kts 97°
2026-05-07 23:01 50.63545 -2.94211 33686 ft 472 kts 85°
2026-05-07 23:01 50.64014 -2.89056 32839 ft 476 kts 82°
2026-05-07 23:02 50.64588 -2.83891 32038 ft 479 kts 82°
2026-05-07 23:02 50.65177 -2.78707 31212 ft 481 kts 82°
2026-05-07 23:02 50.65758 -2.73559 30387 ft 484 kts 82°
2026-05-07 23:02 50.66343 -2.68326 29657 ft 483 kts 82°
2026-05-07 23:03 50.66925 -2.63082 28603 ft 488 kts 82°
2026-05-07 23:03 50.67506 -2.57813 27799 ft 487 kts 82°
2026-05-07 23:03 50.67988 -2.52541 27231 ft 480 kts 88°
2026-05-07 23:03 50.68010 -2.47342 27064 ft 470 kts 94°
2026-05-07 23:04 50.67830 -2.42193 26919 ft 470 kts 96°
2026-05-07 23:04 50.67615 -2.37064 26099 ft 471 kts 96°
2026-05-07 23:04 50.67389 -2.31880 25553 ft 474 kts 96°
2026-05-07 23:04 50.67165 -2.26756 25298 ft 476 kts 96°
2026-05-07 23:05 50.66937 -2.21551 24982 ft 476 kts 96°
2026-05-07 23:05 50.66708 -2.16335 24656 ft 476 kts 96°
2026-05-07 23:05 50.66478 -2.11144 24333 ft 474 kts 96°
2026-05-07 23:05 50.66246 -2.05970 24009 ft 472 kts 96°
2026-05-07 23:06 50.66131 -2.00813 23688 ft 470 kts 92°
2026-05-07 23:06 50.66166 -1.95665 23342 ft 469 kts 91°
2026-05-07 23:06 50.66230 -1.90545 23018 ft 466 kts 90°
2026-05-07 23:06 50.66295 -1.85432 22702 ft 464 kts 91°
2026-05-07 23:07 50.66355 -1.80418 22388 ft 463 kts 91°
2026-05-07 23:07 50.66412 -1.75357 22084 ft 461 kts 91°
2026-05-07 23:07 50.66466 -1.70314 21767 ft 459 kts 91°
2026-05-07 23:07 50.66516 -1.65289 21453 ft 457 kts 91°
2026-05-07 23:08 50.66567 -1.60290 21155 ft 456 kts 90°
2026-05-07 23:08 50.66890 -1.55316 21070 ft 457 kts 79°
2026-05-07 23:08 50.67920 -1.50574 21073 ft 458 kts 67°
2026-05-07 23:08 50.69276 -1.46024 21074 ft 458 kts 65°
2026-05-07 23:09 50.70687 -1.41509 20981 ft 462 kts 65°
2026-05-07 23:09 50.72111 -1.36958 20281 ft 462 kts 64°
2026-05-07 23:09 50.73528 -1.32401 19432 ft 462 kts 65°
2026-05-07 23:09 50.74949 -1.27859 18689 ft 459 kts 63°
2026-05-07 23:10 50.76744 -1.23721 17935 ft 456 kts 47°
2026-05-07 23:10 50.79142 -1.20502 17176 ft 451 kts 35°
2026-05-07 23:10 50.81743 -1.17765 16448 ft 446 kts 32°
2026-05-07 23:10 50.84339 -1.15135 15837 ft 439 kts 32°
2026-05-07 23:11 50.86848 -1.12586 15374 ft 430 kts 32°
2026-05-07 23:11 50.89375 -1.10000 14929 ft 422 kts 32°
2026-05-07 23:11 50.91809 -1.07496 14479 ft 421 kts 32°
2026-05-07 23:11 50.94263 -1.04960 14033 ft 419 kts 32°
2026-05-07 23:12 50.96705 -1.02430 13554 ft 417 kts 32°
2026-05-07 23:12 50.98313 -1.00760 13263 ft 416 kts 33°
2026-05-07 23:12 51.00628 -0.98015 13088 ft 414 kts 42°
2026-05-07 23:12 51.02634 -0.94766 13075 ft 405 kts 47°
2026-05-07 23:13 51.05042 -0.90502 13082 ft 378 kts 48°
2026-05-07 23:13 51.06742 -0.87457 13084 ft 359 kts 48°
2026-05-07 23:13 51.07840 -0.85487 13077 ft 347 kts 48°
2026-05-07 23:13 51.09408 -0.82680 13073 ft 331 kts 48°
2026-05-07 23:14 51.10934 -0.79948 12531 ft 332 kts 48°
2026-05-07 23:14 51.12480 -0.77181 11872 ft 337 kts 48°
2026-05-07 23:14 51.14053 -0.74366 11222 ft 342 kts 47°
2026-05-07 23:14 51.15611 -0.71569 10903 ft 338 kts 47°
2026-05-07 23:15 51.17144 -0.68814 10741 ft 326 kts 47°
2026-05-07 23:15 51.18634 -0.66140 10391 ft 322 kts 47°
2026-05-07 23:15 51.20135 -0.63447 9755 ft 328 kts 47°
2026-05-07 23:15 51.21659 -0.60712 9060 ft 331 kts 47°
2026-05-07 23:16 51.23193 -0.57957 8475 ft 332 kts 47°
2026-05-07 23:16 51.24717 -0.55210 8013 ft 328 kts 47°
2026-05-07 23:16 51.26200 -0.52528 7641 ft 314 kts 48°
2026-05-07 23:16 51.27615 -0.49966 7329 ft 299 kts 47°
2026-05-07 23:17 51.29146 -0.47889 7075 ft 282 kts 25°
2026-05-07 23:17 51.30994 -0.47346 6857 ft 264 kts 351°
2026-05-07 23:17 51.32596 -0.48479 6644 ft 248 kts 320°
2026-05-07 23:17 51.33818 -0.50382 6283 ft 243 kts 312°
2026-05-07 23:18 51.34940 -0.52405 5829 ft 243 kts 311°
2026-05-07 23:18 51.36026 -0.54391 5580 ft 233 kts 311°
2026-05-07 23:18 51.37075 -0.56296 5378 ft 222 kts 311°
2026-05-07 23:18 51.38100 -0.58141 5081 ft 226 kts 312°
2026-05-07 23:19 51.39187 -0.60085 4817 ft 239 kts 312°
2026-05-07 23:19 51.40290 -0.62054 4572 ft 241 kts 312°
2026-05-07 23:19 51.41425 -0.64078 4329 ft 240 kts 312°
2026-05-07 23:19 51.42526 -0.66043 4087 ft 239 kts 312°
2026-05-07 23:20 51.43639 -0.68025 3844 ft 238 kts 312°
2026-05-07 23:20 51.44749 -0.70003 3608 ft 238 kts 312°
2026-05-07 23:20 51.45853 -0.71976 3362 ft 237 kts 312°
2026-05-07 23:20 51.46954 -0.73942 3118 ft 237 kts 312°
2026-05-07 23:21 51.48145 -0.75747 2913 ft 235 kts 327°
2026-05-07 23:21 51.49652 -0.76597 2829 ft 226 kts 358°
2026-05-07 23:21 51.51112 -0.76109 2676 ft 208 kts 30°
2026-05-07 23:21 51.52131 -0.74654 2609 ft 193 kts 58°
2026-05-07 23:22 51.52615 -0.72677 2582 ft 190 kts 84°
2026-05-07 23:22 51.52504 -0.70591 2551 ft 188 kts 110°
2026-05-07 23:22 51.51836 -0.68816 2532 ft 187 kts 134°
2026-05-07 23:22 51.50761 -0.67690 2494 ft 189 kts 159°
2026-05-07 23:23 51.49465 -0.67425 2495 ft 191 kts 185°
2026-05-07 23:23 51.48175 -0.68001 2501 ft 193 kts 198°
2026-05-07 23:23 51.46888 -0.68564 2491 ft 191 kts 181°
2026-05-07 23:23 51.45626 -0.68117 2495 ft 187 kts 147°
2026-05-07 23:24 51.44779 -0.66582 2496 ft 187 kts 113°
2026-05-07 23:24 51.44641 -0.64521 2499 ft 189 kts 82°
2026-05-07 23:24 51.44972 -0.62465 2498 ft 192 kts 74°
2026-05-07 23:24 51.45393 -0.60457 2491 ft 192 kts 73°
2026-05-07 23:25 51.45824 -0.58426 2494 ft 192 kts 73°
2026-05-07 23:25 51.46247 -0.56380 2493 ft 193 kts 74°
2026-05-07 23:25 51.46665 -0.54333 2493 ft 193 kts 74°
2026-05-07 23:25 51.47080 -0.52282 2493 ft 194 kts 74°
2026-05-07 23:26 51.47495 -0.50218 2595 ft 196 kts 74°
2026-05-07 23:26 51.47694 -0.48023 3052 ft 203 kts 92°
2026-05-07 23:26 51.47751 -0.45753 3665 ft 204 kts 86°
2026-05-07 23:26 51.47907 -0.43491 3954 ft 204 kts 84°
2026-05-07 23:27 51.48244 -0.38945 3993 ft 206 kts 84°
2026-05-07 23:27 51.48413 -0.36647 3994 ft 207 kts 84°
2026-05-07 23:27 51.48583 -0.34362 3993 ft 207 kts 84°
2026-05-07 23:28 51.49090 -0.32223 3992 ft 209 kts 53°
2026-05-07 23:28 51.50249 -0.30862 3997 ft 212 kts 27°
2026-05-07 23:28 51.51614 -0.30041 3991 ft 202 kts 16°
2026-05-07 23:28 51.52999 -0.29818 3997 ft 203 kts
2026-05-07 23:29 51.54418 -0.29830 3995 ft 205 kts
2026-05-07 23:29 51.55842 -0.29871 3993 ft 205 kts
2026-05-07 23:29 51.57272 -0.29914 3993 ft 205 kts
2026-05-07 23:29 51.58697 -0.29953 3993 ft 206 kts
2026-05-07 23:30 51.60131 -0.29987 3994 ft 206 kts
2026-05-07 23:30 51.61553 -0.30263 4013 ft 208 kts 339°
2026-05-07 23:30 51.62663 -0.31711 4020 ft 208 kts 302°
2026-05-07 23:30 51.63104 -0.33896 4023 ft 207 kts 276°
2026-05-07 23:31 51.63217 -0.36207 3994 ft 207 kts 271°
2026-05-07 23:31 51.63283 -0.38519 3994 ft 207 kts 271°
2026-05-07 23:31 51.63343 -0.40837 3993 ft 207 kts 271°
2026-05-07 23:31 51.63401 -0.43147 3992 ft 207 kts 271°
2026-05-07 23:32 51.63459 -0.45467 3995 ft 207 kts 271°
2026-05-07 23:32 51.63517 -0.47787 3992 ft 207 kts 271°
2026-05-07 23:32 51.63574 -0.50075 3994 ft 207 kts 270°
2026-05-07 23:32 51.63630 -0.52390 3993 ft 207 kts 270°
2026-05-07 23:33 51.63687 -0.54710 3992 ft 207 kts 271°
2026-05-07 23:33 51.63744 -0.57026 3994 ft 207 kts 271°
2026-05-07 23:33 51.63801 -0.59343 3995 ft 207 kts 270°
2026-05-07 23:33 51.63857 -0.61703 3997 ft 220 kts 271°
2026-05-07 23:34 51.63915 -0.64226 3985 ft 229 kts 270°
2026-05-07 23:34 51.63973 -0.66817 3981 ft 231 kts 270°
2026-05-07 23:34 51.64012 -0.69398 3987 ft 230 kts 265°
2026-05-07 23:34 51.63507 -0.71774 3991 ft 224 kts 231°
2026-05-07 23:35 51.62325 -0.73255 3995 ft 219 kts 198°
2026-05-07 23:35 51.60840 -0.73710 4003 ft 218 kts 183°
2026-05-07 23:35 51.59302 -0.73854 4000 ft 219 kts 181°
2026-05-07 23:35 51.57799 -0.73957 3997 ft 219 kts 180°
2026-05-07 23:36 51.56278 -0.74058 3996 ft 219 kts 180°
2026-05-07 23:36 51.54753 -0.74167 3999 ft 220 kts 180°
2026-05-07 23:36 51.53222 -0.74280 3998 ft 220 kts 180°
2026-05-07 23:36 51.51721 -0.74395 3993 ft 207 kts 181°
2026-05-07 23:37 51.50338 -0.74390 3877 ft 190 kts 165°
2026-05-07 23:37 51.49269 -0.73370 3652 ft 176 kts 129°
2026-05-07 23:37 51.48502 -0.71874 3364 ft 172 kts 131°
2026-05-07 23:37 51.47878 -0.70275 2989 ft 171 kts 107°
2026-05-07 23:38 51.47709 -0.68405 2638 ft 168 kts 94°
2026-05-07 23:38 51.47696 -0.66577 2344 ft 164 kts 92°
2026-05-07 23:38 51.47694 -0.64740 2117 ft 165 kts 91°
2026-05-07 23:38 51.47700 -0.62903 1897 ft 164 kts 92°
2026-05-07 23:39 51.47705 -0.61063 1674 ft 165 kts 92°
2026-05-07 23:39 51.47710 -0.59217 1447 ft 165 kts 92°
2026-05-07 23:39 51.47717 -0.57374 1215 ft 165 kts 91°
2026-05-07 23:39 51.47723 -0.55531 975 ft 165 kts 91°
2026-05-07 23:40 51.47730 -0.53680 749 ft 165 kts 90°
2026-05-07 23:40 51.47736 -0.51868 528 ft 157 kts 90°
2026-05-07 23:40 51.47742 -0.50179 331 ft 147 kts 90°
2026-05-07 23:40 51.47748 -0.48555 143 ft 145 kts 90°
2026-05-07 23:41 51.47753 -0.47048 95 ft 111 kts 90°
2026-05-07 23:41 51.47756 -0.46232 94 ft 38 kts 90°
2026-05-07 23:41 51.47756 -0.45977 94 ft 33 kts 90°
2026-05-07 23:41 51.47757 -0.45597 93 ft 31 kts 90°
2026-05-07 23:42 51.47651 -0.45466 91 ft 20 kts 180°
2026-05-07 23:42 51.47537 -0.45442 95 ft 13 kts 154°
2026-05-07 23:42 51.47506 -0.45317 95 ft 12 kts 92°
2026-05-07 23:42 51.47503 -0.45188 95 ft 10 kts 92°
2026-05-07 23:43 51.47504 -0.45086 97 ft 8 kts 89°
2026-05-07 23:43 51.47505 -0.44996 98 ft 8 kts 89°
2026-05-07 23:43 51.47505 -0.44895 94 ft 8 kts 95°
2026-05-07 23:43 51.47477 -0.44849 95 ft 6 kts 158°
2026-05-07 23:44 51.47433 -0.44845 91 ft 6 kts 180°
2026-05-07 23:44 51.47403 -0.44845 93 ft 0 kts 180°